Miscellaneous Local Product
Issued by NWS Hastings, NE

Home | Current Version | Previous Version | Graphics & Text | Print | Product List | Glossary On
Versions: 1 2 3 4 5 6 7 8 9 10 11 12 13 14 15 16 17 18 19 20 21 22 23 24 25 26 27 28 29 30 31 32 33 34 35 36 37 38 39 40 41 42 43 44 45 46 47 48 49 50
202
AXUS43 KGID 301602
MISGRI

GID CWA HOURLY WEATHER ROUNDUP
NATIONAL WEATHER SERVICE HASTINGS NE
1100 AM CDT FRI SEP 30 2016

NOTE: "FAIR" INDICATES FEW OR NO CLOUDS BELOW 12,000 FEET WITH NO
SIGNIFICANT WEATHER AND/OR OBSTRUCTIONS TO VISIBILITY.

...SOUTH CENTRAL NEBRASKA...

CITY           SKY/WX    TMP DP  RH WIND       PRES   REMARKS
GRAND ISLAND   SUNNY     61  49  64 VRB5      30.29F
HASTINGS       SUNNY     64  48  56 VRB3      30.29F
KEARNEY        CLOUDY    61  46  59 SE9       30.27F
ORD            SUNNY     61  46  57 S8        30.27F
YORK           SUNNY     63  48  59 SE3       30.30F
AURORA         SUNNY     63  48  59 S5        30.29F
LEXINGTON      CLOUDY    61  48  61 S10       30.27S
HOLDREGE       CLOUDY    62  46  57 S9        30.28S
HEBRON         SUNNY     64  49  58 CALM      30.29S

...NEBRASKA PANHANDLE...

CITY           SKY/WX    TMP DP  RH WIND       PRES   REMARKS
CHADRON        CLOUDY    59  42  53 S12       30.13S
ALLIANCE       SUNNY     58  42  55 S15       30.20R
SCOTTSBLUFF    MOSUNNY   55  42  61 SE6       30.21R
SIDNEY         CLOUDY    55  42  61 S9        30.23S

...WESTERN AND NORTH CENTRAL NEBRASKA...

CITY           SKY/WX    TMP DP  RH WIND       PRES   REMARKS
VALENTINE      MOSUNNY   61  44  53 S20       30.22S
AINSWORTH      MOSUNNY   62  48  61 S18       30.24S
ONEILL         SUNNY     64  46  53 SE12      30.29F
BROKEN BOW     CLOUDY    61  47  59 S16G24    30.27F
IMPERIAL       MOSUNNY   60  44  55 S16       30.22F
NORTH PLATTE   CLOUDY    61  46  57 SE14      30.26S
MCCOOK         MOSUNNY   63  47  55 S15       30.25S

...EASTERN NEBRASKA...

CITY           SKY/WX    TMP DP  RH WIND       PRES   REMARKS
NORFOLK        SUNNY     62  49  62 VRB5      30.30F
SO SIOUX CITY  SUNNY     64  53  67 NE3       30.31F
TEKAMAH        SUNNY     64  50  60 CALM      30.31S
COLUMBUS       SUNNY     61  45  55 S3        30.31F
ALBION         SUNNY     62  47  59 SE6       30.29F
OMAHA EPPLEY   MOSUNNY   63  51  65 N3        30.30S
OFFUTT AFB     SUNNY     64  52  64 VRB1      30.29S
MILLARD        SUNNY     65  50  58 SE5       30.29F
LINCOLN        SUNNY     63  51  65 E5        30.30F
NEBRASKA CITY  SUNNY     65  44  47 NE6       30.29F
BEATRICE       SUNNY     65  52  62 CALM      30.29S
FALLS CITY     SUNNY     68  49  50 N7        30.26F

...NORTHERN KANSAS...

CITY           SKY/WX    TMP DP  RH WIND       PRES   REMARKS
GOODLAND       CLOUDY    61  45  55 S21       30.21R
HILL CITY      SUNNY     63  50  62 S9        30.27F
NORTON         SUNNY     63  45  51 SE12      30.26F
PHILLIPSBURG   SUNNY     63  48  59 SE7       30.28F
SMITH CENTER   SUNNY     64  48  55 CALM      30.29S
BELOIT         SUNNY     63  50  63 CALM      30.27F
HAYS           SUNNY     64  45  48 S12       30.27F
RUSSELL        SUNNY     63  49  60 E6        30.26
CONCORDIA      SUNNY     64  51  62 E6        30.29S
SALINA         SUNNY     64  51  62 CALM      30.28F
TOPEKA         SUNNY     65  54  67 N3        30.26F



USA.gov is the U.S. government's official web portal to all federal, state and local government web resources and services.